This is the latest recevied weather packets stored in our database for station/object N2PUI. If no packets are shown the sender has not sent any weather packets the latest 10 day(s).
| Time | Temp. | Humidity | Pressure | Rain* | Wind** | Luminosity | Snow |
|---|---|---|---|---|---|---|---|
| 1778085446 | 10° C | 95% | 1006.9 hPa | 0 mm | - | 55 W/m² | - |
| 1778085141 | 10° C | 95% | 1007 hPa | 0 mm | - | 52 W/m² | - |
| 1778084837 | 10.56° C | 95% | 1007.1 hPa | 0 mm | - | 40 W/m² | - |
| 1778084534 | 11.11° C | 95% | 1006.9 hPa | 0 mm | - | 48 W/m² | - |
| 1778084226 | 11.67° C | 95% | 1006.6 hPa | 0 mm | - | 85 W/m² | - |
| 1778083923 | 12.78° C | 95% | 1006.7 hPa | 0 mm | - | 48 W/m² | - |
| 1778083621 | 13.33° C | 95% | 1006.4 hPa | 0 mm | - | 52 W/m² | - |
| 1778083317 | 13.33° C | 95% | 1006.6 hPa | 0 mm | - | 68 W/m² | - |
| 1778083016 | 13.33° C | 95% | 1006.7 hPa | 0 mm | - | 73 W/m² | - |
| 1778082712 | 13.89° C | 95% | 1006.4 hPa | 0 mm | - | 78 W/m² | - |
| 1778081574 | 13.33° C | 95% | 1006.8 hPa | 0 mm | - | 35 W/m² | - |
| 1778081271 | 13.33° C | 95% | 1006.8 hPa | 0 mm | - | 53 W/m² | - |
| 1778080969 | 13.33° C | 95% | 1006.8 hPa | 0 mm | - | 47 W/m² | - |
| 1778080668 | 13.33° C | 95% | 1006.8 hPa | 0 mm | - | 69 W/m² | - |
| 1778080364 | 13.33° C | 95% | 1007 hPa | 1.78 mm | - | 61 W/m² | - |
| 1778080060 | 13.33° C | 95% | 1006.7 hPa | 1.78 mm | - | 49 W/m² | - |
| 1778079758 | 13.33° C | 95% | 1006.8 hPa | 0 mm | - | 38 W/m² | - |
| 1778079454 | 13.33° C | 95% | 1006.8 hPa | 0 mm | - | 51 W/m² | - |
| 1778079151 | 13.33° C | 95% | 1006.6 hPa | 0 mm | - | 55 W/m² | - |
| 1778078848 | 13.33° C | 95% | 1006.6 hPa | 0 mm | - | 59 W/m² | - |
| 1778078545 | 13.33° C | 95% | 1006.4 hPa | 0 mm | - | 79 W/m² | - |
| 1778078243 | 13.33° C | 95% | 1006.4 hPa | 0 mm | - | 67 W/m² | - |
| 1778077940 | 13.33° C | 95% | 1006.7 hPa | 0 mm | - | 82 W/m² | - |
| 1778077639 | 13.33° C | 95% | 1006.6 hPa | 0 mm | - | 144 W/m² | - |
| 1778077336 | 12.78° C | 95% | 1006.6 hPa | 1.27 mm | - | 155 W/m² | - |
* Rain latest hour (hover to see other rain measurements)
** Current wind speed in m/s (hover to see current wind gust speed)